Starlink 11123

operational
NORAD ID: 59948 Int'l Des: 2024-107 Owner: SPXS Country: US Constellation: starlink
LEOCIRCULAR

关于 Starlink 11123

正在加载描述...

实时位置

正在加载3D地球...

即将过境

高度历史

Altitude vs Time

uPlot chart will show altitude changes over time

两行轨道根数

1 59948U 24107D 25260.63884418 .00002269 00000-0 23562-4 0 9997
2 59948 53.1589 24.5435 0001027 97.9873 262.1261 15.69733394 75028
Epoch: Sep 17, 2025 • Age: 28 hours

当前状态

高度 364.1 km
速度 7.69 km/s
星下点 -15.96°S, 82.23°W
发射日期 Jun 5, 2024
运行时间 1.2 years
类型 internet

技术详情

分类 Payload
质量 960.00 kg
干质量 910.00 kg
总质量 960.00 kg
长度 0.30 m
直径 4.10 m
跨度 29.00 m
形状 Box + pan
制造商 SPXS
平台类型 Starlink V2MD
阶段状态 In Orbit
所有者/国家 SPXS/US

大型星座

Loading constellations...